Weather History for Lander, WY

Change the Weather History Date:

Monday, May 27, 2013

  Actual Average Record
Temperature  
Mean Temperature 62 °F 57 °F  
Max Temperature 73 °F 70 °F 90 °F (1969)
Min Temperature 50 °F 43 °F 27 °F (1893)
Degree Days  
Heating Degree Days 3 9  
Month to date heating degree days 265 336  
Since 1 July heating degree days 7325 7590  
Cooling Degree Days 0 0  
Month to date cooling degree days 9 0  
Year to date cooling degree days 9 0  
Growing Degree Days 14 (Base 50)    
Moisture  
Dew Point 29 °F    
Average Humidity 35    
Maximum Humidity 55    
Minimum Humidity 14    
Precipitation  
Precipitation 0.00 in 0.06 in 0.71 in (1947)
Month to date precipitation 1.83 1.95  
Year to date precipitation 7.37 5.97  
Snow  
Snow 0.00 in 0.00 in - ()
Month to date snowfall 10.5 4.7  
Since 1 July snowfall 111.1 91.2  
Snow Depth 0.00 in    
Sea Level Pressure  
Sea Level Pressure 29.68 in    
Wind  
Wind Speed 9 mph (WNW)    
Max Wind Speed 22 mph    
Max Gust Speed 28 mph    
Visibility 10 miles    
Events      
T = Trace of Precipitation, MM = Missing Value Source: NWS Daily Summary

Daily Weather History Graph

Daily Weather History Graph

Search for Another Location

Airport:

Trip Planner

Search our weather history database for the weather conditions in past years. The results will help you decide how hot, cold, wet, or windy it might be!

Date:

Astronomy

May. 27, 2013 Rise Set
Actual Time 5:41 AM MDT 8:42 PM MDT
Civil Twilight 5:07 AM MDT 9:16 PM MDT
Nautical Twilight 4:24 AM MDT 10:00 PM MDT
Astronomical Twilight 3:33 AM MDT 10:51 PM MDT
Moon 11:22 PM MDT (5/27) 8:23 AM MDT (5/27)
Length of Visible Light 16h 08m
Length of Day
15h 01m
Waning Gibbous, 90% of the Moon is Illuminated
May 27
Waning Gibbous
May 31
Last Quarter
Jun 8
New
Jun 16
First Quarter
Jun 23
Full

Hourly Weather History & Observations

Time (MDT) Temp. Dew Point Humidity Pressure Visibility Wind Dir Wind Speed Gust Speed Precip Events Conditions
12:53 AM 55.9 °F 27.0 °F 33% 29.71 in 10.0 mi West 15.0 mph 19.6 mph N/A   Clear
1:53 AM 55.9 °F 27.0 °F 33% 29.68 in 10.0 mi South 3.5 mph - N/A   Clear
2:53 AM 54.0 °F 28.9 °F 38% 29.68 in 10.0 mi NW 6.9 mph - N/A   Clear
3:53 AM 54.0 °F 28.0 °F 37% 29.69 in 10.0 mi WSW 9.2 mph - N/A   Clear
4:53 AM 54.0 °F 30.0 °F 40% 29.73 in 10.0 mi WNW 10.4 mph - N/A   Scattered Clouds
5:53 AM 54.0 °F 33.1 °F 45% 29.74 in 10.0 mi NE 9.2 mph - N/A   Overcast
6:53 AM 54.0 °F 37.0 °F 53% 29.75 in 10.0 mi ESE 5.8 mph - N/A   Clear
7:53 AM 57.9 °F 41.0 °F 53% 29.73 in 10.0 mi SE 9.2 mph - N/A   Clear
8:53 AM 61.0 °F 39.0 °F 44% 29.73 in 10.0 mi SE 11.5 mph - N/A   Clear
9:53 AM 64.0 °F 42.1 °F 45% 29.69 in 10.0 mi East 11.5 mph - N/A   Clear
10:53 AM 66.9 °F 33.1 °F 28% 29.68 in 10.0 mi ENE 5.8 mph - N/A   Clear
11:53 AM 69.1 °F 27.0 °F 21% 29.68 in 10.0 mi WSW 12.7 mph 24.2 mph N/A   Clear
12:53 PM 71.1 °F 25.0 °F 18% 29.66 in 10.0 mi West 16.1 mph 21.9 mph N/A   Clear
1:53 PM 72.0 °F 23.0 °F 16% 29.64 in 10.0 mi SW 13.8 mph 26.5 mph N/A   Clear
2:53 PM 73.0 °F 21.9 °F 15% 29.63 in 10.0 mi NW 9.2 mph 23.0 mph N/A   Clear
3:53 PM 71.1 °F 23.0 °F 16% 29.63 in 10.0 mi WNW 12.7 mph - N/A   Clear
4:53 PM 72.0 °F 19.9 °F 14% 29.62 in 10.0 mi WNW 9.2 mph - N/A   Clear
5:53 PM 72.0 °F 23.0 °F 16% 29.62 in 10.0 mi WNW 11.5 mph - N/A   Clear
6:53 PM 69.1 °F 24.1 °F 18% 29.62 in 10.0 mi NNW 12.7 mph 18.4 mph N/A   Clear
7:53 PM 64.0 °F 27.0 °F 25% 29.64 in 10.0 mi North 6.9 mph - N/A   Clear
8:53 PM 62.1 °F 26.1 °F 25% 29.65 in 10.0 mi NNW 4.6 mph - N/A   Clear
9:53 PM 60.1 °F 27.0 °F 28% 29.68 in 10.0 mi Variable 3.5 mph - N/A   Clear
10:53 PM 57.0 °F 30.0 °F 36% 29.69 in 10.0 mi West 4.6 mph - N/A   Scattered Clouds
11:53 PM 55.9 °F 30.9 °F 39% 29.68 in 10.0 mi West 4.6 mph - N/A   Partly Cloudy